Date,TemperatureHighF,TemperatureAvgF,TemperatureLowF,DewpointHighF,DewpointAvgF,DewpointLowF,HumidityHigh,HumidityAvg,HumidityLow,PressureMaxIn,PressureMinIn,WindSpeedMaxMPH,WindSpeedAvgMPH,GustSpeedMaxMPH,PrecipitationSumIn
2013-1-1,25.3,12.5,5.9,-6.9,-13.2,-24.9,38,31,19,29.56,29.47,4,4,4,0.00
2013-1-2,31.8,20.7,6.1,4.0,-8.0,-24.8,45,28,19,29.53,29.35,9,6,9,0.00
2013-1-3,28.4,23.2,13.8,13.2,6.9,-0.5,60,49,40,29.59,29.35,13,7,13,0.00
2013-1-4,34.2,22.0,11.1,12.8,2.0,-3.9,68,44,22,29.56,29.41,4,4,4,0.00
2013-1-5,38.5,27.9,13.6,31.5,16.3,3.9,92,65,29,29.56,28.97,14,5,14,0.16
2013-1-6,34.9,26.8,14.4,26.6,10.0,3.0,72,50,31,29.68,29.20,9,9,9,0.16
2013-1-7,40.1,28.1,13.3,17.0,7.5,-1.6,79,45,21,29.65,29.38,9,8,9,0.16
2013-1-8,43.7,34.2,22.6,26.4,13.7,4.7,79,45,23,29.47,29.32,8,8,8,0.16
2013-1-9,45.1,36.5,23.2,19.0,13.8,0.5,60,40,17,29.85,29.26,9,8,9,0.00
2013-1-10,47.3,32.4,19.8,35.4,15.8,1.8,95,55,17,29.85,29.26,3,3,3,0.50
2013-1-11,51.6,45.7,36.7,47.7,40.8,34.2,98,84,52,29.26,28.97,15,4,15,0.21
2013-1-12,51.6,40.0,27.0,35.2,19.9,4.9,55,44,32,29.32,28.97,15,15,516,0.00
2013-1-13,27.0,21.2,12.7,13.8,1.2,-9.7,59,42,29,29.56,29.20,15,13,516,0.00
2013-1-14,30.6,16.7,8.2,-1.7,-9.2,-13.8,48,32,18,29.79,29.56,8,8,8,0.00
2013-1-15,37.0,14.0,8.1,9.8,-7.3,-10.4,55,38,19,29.82,29.47,9,8,9,0.00
2013-1-16,34.0,25.7,10.2,18.6,3.6,-10.2,62,40,20,29.47,29.14,1,1,1,0.00
2013-1-17,33.6,23.3,11.5,19.4,-6.0,-13.6,57,28,18,29.76,29.38,13,2,13,0.00
2013-1-18,42.4,30.1,10.2,16.0,6.3,-9.5,55,37,21,29.79,29.17,0,0,0,0.00
2013-1-19,46.0,38.7,21.4,20.6,13.2,-11.5,42,35,19,29.26,29.00,24,3,24,0.00
2013-1-20,21.9,14.4,9.3,-11.7,-17.6,-21.2,24,22,20,29.65,29.26,18,18,18,0.00
2013-1-21,11.8,6.8,0.7,-19.8,-24.0,-29.2,22,22,22,29.62,29.47,18,15,18,0.00
2013-1-22,11.8,-0.3,-6.2,-19.7,-30.0,-35.1,22,22,22,29.74,29.62,9,6,9,0.00
2013-1-23,18.9,12.7,5.4,3.0,-11.5,-25.2,54,34,22,29.71,29.44,9,8,9,0.00
2013-1-24,25.5,12.2,1.0,-3.3,-12.1,-18.9,46,34,19,29.97,29.71,8,8,8,0.00
2013-1-25,26.2,21.8,15.8,5.3,-2.0,-15.9,56,35,20,29.74,29.29,10,7,10,0.00
2013-1-26,36.1,20.6,6.8,-1.1,-7.7,-16.5,45,29,18,29.74,29.50,5,5,5,0.03
2013-1-27,35.4,28.5,21.0,33.6,12.0,-6.0,93,52,30,29.71,29.20,6,3,6,0.05
2013-1-28,44.4,39.7,35.6,43.9,33.8,22.5,98,81,48,29.29,29.12,2,2,2,0.34
2013-1-29,61.9,52.0,37.6,56.6,48.2,37.1,98,88,63,29.14,28.73,16,3,16,0.95
2013-1-30,41.2,30.5,18.0,39.5,21.5,-0.6,95,71,43,28.97,28.55,6,6,6,0.09
2013-1-31,21.7,12.5,3.6,1.6,-11.0,-20.3,48,34,20,29.47,28.97,13,6,13,0.00
2013-2-1,10.8,3.6,-3.1,-13.9,-20.2,-26.2,31,31,31,29.68,29.47,10,10,10,0.00
2013-2-2,22.5,12.5,-0.6,10.6,-12.2,-31.1,69,34,20,29.50,29.35,10,4,10,0.00
2013-2-3,22.5,12.5,5.0,5.3,-13.0,-27.1,58,32,21,29.41,29.29,0,0,0,0.04
2013-2-4,30.2,18.2,4.6,6.9,0.7,-12.5,61,47,28,29.38,29.23,13,3,13,0.00
2013-2-5,32.0,19.9,0.0,13.0,1.3,-16.8,70,44,34,29.44,29.12,6,6,6,0.00
2013-2-6,43.0,25.8,-0.2,17.6,1.3,-16.5,50,36,18,29.62,29.41,7,3,7,0.16
2013-2-7,36.1,33.2,25.9,30.3,23.6,14.7,90,69,45,29.44,29.20,2,2,2,0.09
2013-2-8,33.6,24.4,20.7,15.4,8.3,2.1,65,51,28,29.74,29.35,4,2,4,0.04
2013-2-9,42.8,22.3,9.1,19.5,5.8,-2.3,80,51,19,29.74,29.44,0,0,0,0.00
2013-2-10,45.3,35.1,18.3,41.1,26.9,6.2,93,73,33,29.44,28.76,14,3,14,0.33
2013-2-11,41.5,31.9,26.6,18.7,10.0,3.9,53,40,32,29.38,28.79,14,14,14,0.00
2013-2-12,30.0,23.4,15.3,8.7,3.6,-4.3,67,43,25,29.44,29.23,14,9,14,0.00
2013-2-13,47.8,23.1,13.6,28.7,9.0,2.1,80,58,17,29.71,29.03,9,6,9,0.00
2013-2-14,40.6,34.4,27.5,22.5,12.2,-3.6,58,41,20,29.32,28.94,15,7,15,0.00
2013-2-15,36.3,26.0,15.3,11.4,-4.5,-15.3,48,27,19,29.56,29.32,6,1,6,0.00
2013-2-16,23.7,13.4,3.6,-7.9,-17.8,-26.8,36,23,19,29.59,29.47,1,1,1,0.00
2013-2-17,37.9,20.0,0.3,-0.6,-13.6,-29.5,38,21,17,29.59,29.35,1,1,1,0.00
2013-2-18,49.6,37.8,25.7,42.3,15.1,-8.7,93,44,19,29.35,28.76,1,1,1,0.45
2013-2-19,28.4,15.0,9.1,12.6,-7.3,-15.8,54,37,23,29.56,28.88,1,1,1,0.00
2013-2-20,27.1,15.3,6.3,-6.2,-12.8,-18.6,37,28,18,29.74,29.56,6,3,6,0.00
2013-2-21,27.7,22.8,10.2,14.6,5.3,-12.0,60,47,35,29.76,29.41,6,6,6,0.00
2013-2-22,37.2,28.8,25.2,19.6,15.4,10.9,79,58,36,29.44,29.14,7,6,7,0.00
2013-2-23,33.8,25.4,17.4,13.4,3.3,-7.9,56,41,20,29.32,29.23,6,6,6,0.00
2013-2-24,46.2,25.6,6.8,6.8,-0.7,-8.7,63,35,17,29.53,29.32,7,6,7,0.09
2013-2-25,55.8,31.5,11.8,17.7,5.8,-2.4,58,38,15,29.56,29.38,5,5,5,0.00
2013-2-26,35.2,33.1,30.9,31.5,20.8,7.3,96,64,32,29.38,28.91,26,9,26,0.00
2013-2-27,41.5,32.9,30.9,29.8,26.4,15.9,90,79,39,29.12,28.88,11,7,11,0.00
2013-2-28,43.7,32.7,25.7,24.0,12.7,2.3,70,45,23,29.47,29.09,0,0,0,0.29
2013-3-1,27.7,25.2,23.7,9.9,6.4,3.4,54,44,40,29.59,29.41,0,0,0,0.00
2013-3-2,42.6,24.6,3.9,4.8,-3.6,-18.4,44,30,18,29.59,29.50,0,0,0,0.08
2013-3-3,48.6,20.0,-2.2,5.3,-11.6,-25.8,49,25,16,29.56,29.41,0,0,0,0.08
2013-3-4,39.9,23.6,4.1,14.3,-4.3,-26.3,51,30,18,29.50,29.38,0,0,0,0.00
2013-3-5,33.8,30.7,27.3,23.2,15.5,7.4,80,54,36,29.38,29.17,0,0,0,0.00
2013-3-6,42.1,31.8,26.6,12.2,9.1,0.5,53,40,18,29.71,29.38,0,0,0,0.21
2013-3-7,50.7,31.2,13.6,13.6,3.3,-7.8,49,33,16,29.79,29.68,0,0,0,0.33
2013-3-8,53.4,30.3,7.0,11.2,2.4,-8.6,52,34,16,29.88,29.68,2,2,2,0.00
2013-3-9,48.0,38.4,27.7,21.5,11.1,2.6,56,34,17,29.68,29.20,2,2,2,0.09
2013-3-10,53.4,42.6,39.0,49.0,37.1,13.7,98,83,30,29.20,28.94,2,1,2,0.41
2013-3-11,43.0,36.5,32.5,42.5,32.2,17.8,98,86,54,29.12,28.88,0,0,0,0.92
2013-3-12,39.9,31.1,23.9,21.6,11.3,-3.5,73,46,18,29.38,29.12,14,5,14,0.00
2013-3-13,39.4,27.7,19.4,12.8,-2.0,-11.6,62,29,18,29.71,29.38,6,6,6,0.00
2013-3-14,43.0,31.0,16.5,25.9,5.6,-4.7,83,38,18,29.71,29.44,6,3,6,0.00
2013-3-15,45.0,34.2,28.9,30.0,22.7,11.2,89,65,29,29.47,29.14,2,2,2,0.08
2013-3-16,36.1,30.5,28.4,27.5,14.3,1.7,85,54,24,29.50,29.12,2,2,2,0.00
2013-3-17,37.2,29.0,21.2,10.9,0.1,-6.6,45,29,19,29.62,29.35,2,2,2,0.00
2013-3-18,43.5,30.3,19.6,27.1,12.2,-8.8,78,47,27,29.38,28.94,10,4,10,0.04
2013-3-19,31.8,22.5,13.8,0.0,-6.8,-13.1,46,28,19,29.44,29.12,10,10,10,0.00
2013-3-20,28.2,18.4,10.6,-3.9,-13.7,-18.4,35,23,18,29.47,29.35,14,9,14,0.00
2013-3-21,37.2,25.8,11.8,-1.2,-7.4,-18.0,37,23,18,29.44,29.35,2,2,2,0.00
2013-3-22,46.4,29.4,12.9,5.6,-1.9,-9.1,52,27,17,29.47,29.35,5,2,5,0.00
2013-3-23,46.8,32.5,19.9,15.1,5.6,-2.1,54,35,17,29.53,29.41,1,1,1,0.00
2013-3-24,37.8,32.6,30.2,21.3,10.2,3.3,66,39,24,29.47,29.09,1,0,1,0.00
2013-3-25,39.0,32.8,28.9,12.5,8.5,1.9,48,36,24,29.47,29.12,0,0,0,0.00
2013-3-26,49.3,37.2,31.6,11.9,5.9,-1.2,41,28,16,29.62,29.47,9,0,9,0.00
2013-3-27,48.0,36.1,24.8,11.3,4.7,-5.1,48,28,17,29.71,29.62,0,0,0,0.00
2013-3-28,56.5,37.7,22.3,25.3,6.5,-4.2,71,31,15,29.74,29.62,1,0,1,0.00
2013-3-29,60.1,40.6,24.8,20.8,8.0,-3.6,57,29,14,29.71,29.59,0,0,0,0.00
2013-3-30,60.8,43.8,25.3,27.7,12.9,1.8,77,33,14,29.62,29.20,0,0,0,0.00
2013-3-31,57.7,44.0,33.6,39.7,18.6,1.6,87,42,14,29.26,29.03,9,6,9,0.00
2013-4-1,41.7,33.5,24.3,2.3,-2.3,-7.4,34,21,18,29.59,29.23,9,6,9,0.00
2013-4-2,46.2,34.1,23.0,4.8,-1.6,-10.9,42,22,17,29.68,29.44,10,3,10,0.00
2013-4-3,51.8,34.9,20.5,9.4,-0.5,-9.4,44,23,16,29.82,29.68,9,4,9,1.04
2013-4-4,60.1,42.3,23.5,15.5,5.7,-8.7,42,23,14,29.68,29.32,15,4,15,0.00
2013-4-5,51.8,40.3,29.1,18.4,6.5,-2.6,48,26,16,29.62,29.38,15,6,16,0.00
2013-4-6,68.5,50.0,34.5,39.0,14.5,1.2,62,27,12,29.56,28.94,20,7,24,0.21
2013-4-7,64.0,48.1,36.3,40.6,19.2,7.9,65,35,14,29.35,28.94,10,10,10,0.04
2013-4-8,61.3,47.3,36.1,52.5,29.3,17.5,98,53,21,29.35,28.88,11,8,11,0.53
2013-4-9,44.4,39.8,37.9,41.1,36.6,32.4,98,88,75,29.38,29.17,2,2,2,0.05
2013-4-10,39.4,37.6,35.4,35.0,32.7,28.4,90,82,65,29.38,29.17,15,6,15,0.16
2013-4-11,41.0,39.1,36.3,38.5,35.6,28.4,96,87,72,29.29,28.88,15,5,15,1.16
2013-4-12,43.9,38.1,35.2,39.0,24.0,11.8,97,59,35,29.14,28.88,22,5,22,0.04
2013-4-13,43.7,37.1,30.2,17.4,8.8,-0.6,54,32,18,29.35,29.14,5,5,5,28.80
2013-4-14,62.4,43.7,32.4,32.6,15.7,9.1,57,35,16,29.38,29.00,8,4,9,28.80
2013-4-15,64.6,54.7,41.9,47.7,29.0,11.5,81,41,16,29.32,28.97,24,8,27,0.38
2013-4-16,64.6,46.6,35.1,33.2,16.5,4.3,74,35,14,29.65,29.29,12,4,12,37.92
2013-4-17,44.2,41.8,39.7,43.0,26.8,7.6,96,60,23,29.68,29.14,22,8,26,1.12
2013-4-18,63.1,49.3,39.2,57.6,42.0,12.9,98,80,32,29.17,28.67,33,7,33,3.90
2013-4-19,41.0,36.8,33.6,22.4,11.7,1.6,53,36,21,29.26,28.76,30,12,30,0.24
2013-4-20,51.1,38.2,27.7,10.8,2.7,-6.5,40,23,16,29.79,29.26,14,5,17,70.56
2013-4-21,56.1,44.2,29.5,11.5,5.9,-1.5,41,22,15,29.91,29.65,13,4,15,70.56
2013-4-22,72.9,54.9,39.9,20.9,11.2,4.1,29,18,14,29.68,29.41,13,4,13,0.24
2013-4-23,54.1,44.7,37.0,37.0,26.9,5.3,74,52,16,29.47,29.26,10,4,11,0.99
2013-4-24,55.8,44.3,36.1,18.6,8.9,0.5,45,25,15,29.44,29.29,9,4,9,70.56
2013-4-25,55.4,45.5,38.5,25.9,11.5,4.1,59,27,15,29.62,29.38,4,4,4,0.05
2013-4-26,68.2,61.6,53.8,27.0,18.1,13.5,35,19,15,29.62,29.47,22,10,24,0.05
2013-4-27,73.6,59.3,41.9,36.4,20.5,9.5,66,26,13,29.62,29.38,11,5,11,71.76
2013-4-28,77.4,59.3,50.7,36.4,22.8,11.0,57,26,13,29.38,29.12,3,3,3,71.76
2013-4-29,73.8,62.1,46.6,50.8,29.7,18.5,91,38,13,29.23,29.09,11,3,11,71.76
2013-4-30,86.4,72.8,61.9,40.5,29.1,19.8,45,23,11,29.20,29.03,22,8,24,71.76
2013-5-1,88.3,74.9,66.0,31.2,26.3,19.8,27,17,10,29.41,29.20,5,5,5,41.86
2013-5-17,61.2,59.6,57.9,27.5,23.0,18.6,31,25,19,29.38,29.38,7,7,16,0.29
2013-5-27,52.7,52.7,52.7,22.9,22.9,22.9,31,31,31,29.47,29.47,5,5,25,0.00
2013-5-29,82.2,74.3,66.4,50.7,37.7,24.6,57,34,12,29.20,29.14,4,4,10,0.87
2013-6-25,88.7,73.9,66.2,64.6,52.4,28.2,87,55,13,29.20,29.00,0,0,0,1.20
2013-6-26,82.6,71.8,66.2,64.6,51.1,31.9,90,53,17,29.06,28.94,0,0,0,1.20
2013-6-27,94.3,78.1,63.5,70.2,41.6,22.7,88,38,9,29.06,28.82,0,0,0,1.20
2013-6-28,85.6,73.3,64.9,42.0,31.8,21.5,43,24,11,28.94,28.82,0,0,0,0.00
2013-6-29,76.1,68.1,62.6,57.4,37.2,18.5,77,37,13,29.03,28.85,0,0,0,0.00
2013-6-30,80.8,69.4,59.5,36.2,24.0,15.7,39,20,12,29.32,29.03,0,0,0,1.95
2013-7-1,79.9,65.5,57.4,32.7,19.5,14.4,36,18,12,29.38,29.32,0,0,229,1.95
2013-7-2,77.4,63.8,54.7,46.6,28.9,15.8,69,30,13,29.38,29.32,0,0,229,1.95
2013-7-3,76.6,65.1,59.9,48.4,38.7,25.4,62,39,18,29.35,29.26,6,1,229,0.05
2013-7-4,92.3,75.9,55.8,57.8,35.3,23.0,84,34,9,29.38,29.23,2,2,2,0.00
2013-7-5,92.3,82.8,64.4,44.4,28.2,19.6,45,15,9,29.35,29.23,13,4,13,0.00
2013-7-6,93.7,77.2,59.7,55.0,34.8,22.0,76,28,9,29.32,29.14,0,0,0,0.00
2013-7-7,95.0,80.7,69.3,52.6,37.4,24.5,54,26,9,29.23,29.12,0,0,0,0.00
2013-7-8,90.7,78.8,70.9,66.0,46.1,30.3,73,35,12,29.23,29.09,19,3,19,0.24
2013-7-9,92.8,79.2,70.3,67.9,52.8,30.3,86,47,12,29.20,29.00,17,6,17,0.13
2013-7-10,87.1,77.4,61.0,70.0,39.2,18.8,85,34,11,29.26,29.03,4,4,4,0.00
2013-7-11,89.2,71.3,55.9,50.8,31.3,18.5,80,31,10,29.35,29.23,13,4,13,0.00
2013-7-12,92.1,73.0,51.6,44.8,29.3,17.6,68,26,9,29.44,29.29,4,3,4,0.00
2013-7-13,87.4,73.9,56.5,47.3,31.1,19.8,62,26,11,29.44,29.35,12,5,12,0.00
2013-7-14,92.5,81.8,61.9,56.5,33.9,22.6,80,23,9,29.47,29.35,7,6,7,0.00
2013-7-15,99.5,81.0,66.2,60.3,42.0,24.7,77,31,9,29.53,29.38,4,3,4,0.00
2013-7-16,98.8,83.3,70.5,67.9,45.0,29.8,80,34,11,29.50,29.38,12,4,12,0.00
2013-7-17,100.8,85.8,71.4,67.2,43.6,29.2,78,30,10,29.53,29.32,3,3,3,0.00
2013-7-18,99.3,86.0,72.7,67.1,41.8,24.7,75,27,10,29.41,29.12,20,4,20,0.00
2013-7-19,97.0,85.3,75.9,48.0,38.5,26.7,36,21,10,29.12,28.88,2,2,2,0.00
2013-7-20,95.7,78.5,63.0,47.4,32.7,22.0,56,22,9,29.17,29.00,14,4,14,0.00
2013-7-21,66.9,63.8,62.8,54.8,42.2,0.0,65,45,40,29.44,29.03,18,1,18,0.00
2013-7-22,93.6,77.7,62.1,60.5,39.3,22.7,83,34,9,29.12,28.91,17,3,17,2.37
2013-7-23,82.8,70.9,56.1,43.4,29.8,17.4,48,24,12,29.29,28.88,13,13,13,0.00
2013-7-24,80.4,65.2,50.0,47.1,27.7,16.2,79,30,12,29.35,29.26,13,10,13,0.00
2013-7-25,88.3,69.2,50.0,41.9,29.2,18.8,67,30,10,29.38,29.14,13,1,13,2.37
2013-7-26,71.6,66.1,60.1,58.2,43.2,28.2,75,46,22,29.26,29.12,13,11,13,2.37
2013-7-27,67.3,59.7,54.0,51.1,27.3,14.4,78,34,15,29.20,29.12,4,4,4,2.37
2013-7-28,72.0,61.0,52.9,35.9,25.3,14.4,52,29,14,29.26,29.12,4,4,4,2.37
2013-7-29,86.0,67.1,54.0,38.5,28.3,17.9,50,27,11,29.44,29.26,4,4,4,2.37
2013-7-30,80.6,65.3,52.2,58.6,38.6,19.6,83,45,12,29.47,29.35,9,3,9,2.37
2013-7-31,85.1,68.5,59.7,61.9,48.4,22.0,88,58,11,29.35,29.12,2,2,2,0.09
2013-8-1,83.5,70.9,56.5,61.2,35.3,16.8,88,39,11,29.26,29.14,13,3,13,2.37
2013-8-2,89.1,72.7,59.9,61.4,33.6,18.5,86,32,10,29.17,29.00,4,4,4,2.37
2013-8-3,85.3,69.3,55.9,44.6,27.6,18.1,58,25,11,29.35,29.17,6,4,6,2.37
2013-8-4,84.6,64.5,53.1,49.5,33.5,18.5,76,38,11,29.44,29.35,2,2,2,2.37
2013-8-5,79.2,65.2,55.0,54.8,36.1,19.6,71,39,12,29.38,29.12,8,3,9,2.37
2013-8-6,88.9,73.6,63.1,63.7,47.2,27.8,85,47,13,29.12,29.00,4,4,4,2.37
2013-8-7,91.4,76.8,63.3,66.0,44.0,22.2,81,40,10,29.17,28.94,16,5,16,2.37
2013-8-8,82.4,67.9,59.2,61.0,39.4,15.8,87,47,12,29.29,29.14,13,6,13,1.53
2013-8-9,86.7,72.6,54.7,45.2,30.2,19.8,62,26,11,29.29,29.14,1,1,1,0.00
2013-8-10,89.4,71.3,56.1,49.4,32.1,18.8,74,30,10,29.41,29.26,8,3,8,0.00
2013-8-11,85.1,68.5,53.1,50.2,34.0,19.6,71,34,11,29.38,29.23,6,6,6,0.00
2013-8-12,88.5,70.6,63.1,60.4,47.0,20.0,80,52,11,29.26,29.06,11,6,11,0.00
2013-8-13,76.5,63.8,52.3,41.2,24.3,14.4,48,24,13,29.44,29.17,8,8,8,0.00
2013-8-14,80.6,64.1,46.4,45.3,25.5,14.4,80,29,12,29.50,29.41,12,6,12,0.00
2013-8-15,86.0,64.5,52.5,36.5,28.2,16.2,47,30,11,29.44,29.35,9,2,9,0.00
2013-8-16,70.5,55.2,51.6,44.6,37.1,33.0,63,51,28,29.44,29.35,2,0,2,0.00
2013-8-17,88.2,68.1,50.2,44.3,28.5,15.8,72,29,10,29.53,29.41,2,2,2,0.00
2013-8-18,89.4,69.5,50.2,40.2,29.1,16.9,59,28,10,29.50,29.32,10,4,10,0.00
2013-8-19,90.3,65.8,53.1,44.8,33.3,22.0,61,36,10,29.38,29.23,13,5,13,0.00
2013-8-20,93.2,74.7,58.8,55.9,35.5,19.6,81,32,9,29.38,29.23,13,2,13,0.00
2013-8-21,94.1,78.6,64.8,48.9,34.8,22.4,52,26,9,29.32,29.12,0,0,0,0.00
2013-8-22,82.9,71.5,63.7,58.6,42.7,22.1,79,38,12,29.38,29.17,6,1,6,0.00
2013-8-23,85.5,69.7,54.0,54.3,33.2,15.2,87,36,11,29.47,29.35,1,1,1,0.00
2013-8-24,91.2,71.7,51.1,42.9,30.9,19.6,73,29,10,29.56,29.35,6,1,6,0.00
2013-8-25,93.6,78.1,64.6,43.8,30.7,20.5,36,20,9,29.47,29.29,0,0,0,0.00
2013-8-26,96.1,80.1,69.3,56.9,37.1,23.8,56,25,9,29.41,29.14,15,4,15,0.00
2013-8-27,98.6,84.4,72.5,54.5,40.9,24.5,50,26,9,29.20,28.94,20,8,20,0.00
2013-8-28,91.0,77.9,65.7,57.0,40.0,22.7,59,30,10,29.26,29.00,5,5,5,0.00
2013-8-29,96.1,70.6,62.1,59.3,47.0,20.7,85,53,9,29.32,29.14,6,4,6,0.00
2013-8-30,99.7,77.1,64.2,60.7,42.5,22.2,69,37,9,29.20,28.88,32,4,32,0.12
2013-8-31,79.7,71.0,64.0,56.3,44.2,32.9,70,41,20,29.09,29.00,2,2,2,0.00
2013-9-1,89.8,70.3,61.5,62.8,47.0,23.0,88,55,10,29.06,28.88,8,2,8,0.09
2013-9-2,79.9,67.3,56.1,57.0,34.1,15.8,84,36,12,29.23,29.00,2,2,2,0.00
2013-9-3,82.2,64.2,48.6,49.5,30.1,17.2,84,35,12,29.35,29.23,10,2,10,0.00
2013-9-4,87.1,68.4,51.1,55.7,35.1,19.6,87,40,11,29.38,29.26,1,1,1,0.00
2013-9-5,77.4,66.2,50.4,56.3,28.9,9.5,69,29,13,29.56,29.35,14,2,14,0.00
2013-9-6,91.0,61.0,48.7,49.8,31.4,18.5,57,39,10,29.53,29.20,2,2,2,5.79
2013-9-7,93.6,75.5,63.0,52.8,35.9,22.7,69,31,9,29.23,29.06,2,2,2,0.00
2013-9-11,88.2,76.5,66.0,45.2,33.5,22.0,45,23,10,29.32,29.12,1,1,1,0.62
2013-9-12,80.8,68.4,57.9,59.2,34.5,17.8,82,35,12,29.38,29.14,15,2,15,5.83
2013-9-13,59.7,54.4,47.7,36.9,24.5,8.4,45,32,14,29.50,29.35,3,3,3,0.00
2013-9-14,78.1,50.0,39.4,34.2,23.0,7.1,68,38,13,29.50,29.29,0,0,0,0.00
2013-9-15,58.6,55.6,52.5,49.7,36.6,19.3,78,51,25,29.44,29.26,5,1,5,0.00
2013-9-16,69.1,53.1,43.3,49.7,25.2,8.4,85,36,14,29.68,29.47,21,6,21,0.79
2013-9-17,76.6,57.7,39.9,40.5,25.1,14.4,77,34,13,29.65,29.38,12,2,12,0.00
2013-9-18,83.8,68.3,57.9,45.3,33.2,19.6,44,30,11,29.38,29.12,11,4,11,0.00
2013-9-19,84.7,73.7,67.1,63.3,44.5,24.4,84,40,15,29.20,28.94,6,6,6,0.00
2013-9-20,77.0,66.9,56.1,57.7,35.8,15.1,71,37,13,29.09,28.94,19,6,19,0.00
2013-9-21,66.7,56.5,44.4,43.6,22.7,8.4,66,31,14,29.23,29.06,3,3,3,0.00
2013-9-22,72.7,54.0,40.3,37.5,23.3,8.4,77,36,14,29.35,29.23,3,3,3,0.00
2013-9-23,70.3,53.8,39.9,41.3,24.3,10.0,80,38,14,29.44,29.32,11,4,11,0.08
2013-9-24,73.9,57.2,42.6,45.3,25.3,11.3,82,35,13,29.35,29.23,2,2,2,0.00
2013-9-25,73.8,58.6,43.3,47.1,26.9,13.7,89,38,13,29.29,29.20,15,4,15,0.00
2013-9-26,79.5,59.4,43.3,49.7,27.6,14.9,77,37,12,29.38,29.23,1,1,1,0.00
2013-9-27,85.3,63.4,44.1,44.4,24.9,14.1,80,29,11,29.44,29.29,12,2,12,0.00
2013-9-28,87.1,67.6,50.7,54.4,29.5,17.1,64,29,11,29.35,29.06,6,6,6,0.00
2013-9-29,74.3,58.6,44.1,49.8,25.9,6.8,79,34,13,29.32,29.17,12,4,12,0.00
2013-9-30,77.7,57.9,39.6,33.2,22.5,8.9,58,30,13,29.32,29.12,0,0,0,0.00
2013-10-1,83.7,66.5,55.2,57.8,37.0,19.6,87,41,11,29.23,29.06,0,0,0,0.00
2013-10-2,81.7,64.4,47.7,49.1,28.1,10.3,87,32,12,29.38,29.20,0,0,0,0.00
2013-10-3,80.8,68.3,55.9,62.3,43.1,27.0,86,44,17,29.29,29.06,0,0,0,0.00
2013-10-4,71.6,66.7,62.8,64.6,49.0,39.4,83,55,32,29.23,29.12,0,0,0,0.00
2013-10-5,80.6,68.7,63.5,69.9,53.0,27.8,91,65,18,29.20,28.97,8,2,8,0.00
2013-10-6,63.9,61.6,60.1,55.3,46.6,40.2,75,59,48,29.00,28.97,4,4,4,0.00
2013-10-9,77.4,57.5,44.1,34.0,22.2,8.2,58,29,13,29.53,29.00,6,0,6,0.00
2013-10-10,80.1,57.3,39.9,34.9,24.3,18.5,58,34,12,29.47,29.35,0,0,0,0.00
2013-10-11,78.3,60.5,48.6,44.3,28.2,14.4,69,36,13,29.35,29.17,10,1,10,0.00
2013-10-12,70.2,60.5,45.3,45.8,24.0,6.0,49,26,14,29.47,29.17,5,3,5,0.96
2013-10-13,67.6,49.7,35.2,31.4,16.1,2.5,64,30,14,29.74,29.47,2,2,2,0.00
2013-10-14,65.8,48.6,32.7,32.8,17.2,7.1,55,32,13,29.74,29.44,2,2,2,0.00
2013-10-15,66.7,55.2,44.1,55.3,30.2,20.2,80,40,25,29.44,29.00,2,2,2,0.00
2013-10-16,55.2,49.8,44.4,39.4,27.3,20.3,70,43,26,29.23,29.06,14,5,14,1.04
2013-10-17,52.9,46.5,37.4,39.7,30.1,9.7,76,55,18,29.17,29.06,5,5,5,0.00
2013-10-18,50.2,38.2,32.9,39.1,26.2,7.4,87,67,19,29.26,29.11,8,5,8,0.33
2013-10-19,57.7,44.1,35.4,33.2,16.1,3.7,72,36,14,29.20,29.00,5,5,5,0.00
2013-10-20,57.0,44.9,30.7,38.2,18.2,5.4,76,39,15,29.17,29.00,7,6,7,0.00
2013-10-21,51.8,42.7,29.3,18.8,5.1,-6.5,29,21,17,29.26,29.03,6,6,6,0.00
2013-10-22,47.1,31.0,26.1,13.4,5.2,-1.7,45,35,17,29.29,29.17,5,4,5,0.00
2013-10-23,49.5,36.4,26.1,14.2,4.0,-2.6,47,27,16,29.35,29.17,2,2,2,0.33
2013-10-24,43.3,36.6,30.0,8.4,0.0,-5.1,31,21,18,29.59,29.29,5,2,5,0.00
2013-10-25,54.0,40.4,22.5,14.0,3.3,-6.0,44,22,15,29.68,29.29,3,3,3,0.00
2013-10-26,57.6,45.1,31.5,9.1,3.3,-5.0,25,17,14,29.38,29.12,3,3,3,0.00
2013-10-27,57.7,40.3,24.4,16.6,5.1,-2.9,45,25,14,29.38,29.23,0,0,0,0.00
2013-10-28,49.1,40.6,30.2,24.3,8.2,-0.7,52,27,18,29.71,29.35,8,2,8,0.00
2013-10-29,58.8,44.2,34.5,25.6,15.3,6.6,51,33,14,29.71,29.44,8,8,8,0.00
2013-10-30,59.0,52.2,41.9,57.2,36.3,20.9,98,58,31,29.44,29.00,8,8,8,0.00
2013-10-31,63.0,58.2,44.6,60.4,49.8,21.2,98,75,39,29.00,28.47,11,7,11,1.08
2013-11-1,47.3,43.4,41.5,32.2,22.2,18.6,65,43,32,29.00,28.58,9,8,9,0.00
2013-11-2,48.6,40.9,35.6,34.6,22.4,5.7,82,52,19,29.44,29.00,5,5,5,0.00
2013-11-3,37.0,33.6,30.6,21.8,19.5,16.6,62,56,51,29.56,29.41,5,5,5,0.00
2013-11-4,60.8,46.1,42.8,17.6,11.0,4.1,29,24,14,29.56,29.35,7,5,7,0.00
2013-11-5,61.0,52.3,48.7,43.4,25.6,11.9,72,37,16,29.56,29.17,4,4,4,0.00
2013-11-6,56.5,49.0,30.2,52.3,34.8,-4.1,87,61,20,29.47,29.00,5,4,5,0.00
2013-11-7,43.9,33.1,26.1,13.5,5.9,-4.4,43,33,18,29.56,29.44,5,5,5,0.00
2013-11-8,51.1,32.8,22.8,16.7,8.0,1.4,58,38,16,29.65,29.20,5,5,5,0.00
2013-11-9,57.0,49.3,39.7,10.0,6.1,-0.3,23,17,15,29.62,29.11,5,5,5,0.00
2013-11-10,43.0,37.1,32.9,2.4,-0.9,-3.5,25,20,18,29.62,29.35,5,5,5,0.00
2013-11-11,45.3,34.9,21.4,20.2,3.0,-11.5,59,28,17,29.85,29.35,3,3,3,2.24
2013-11-12,35.4,24.9,18.5,-1.3,-7.2,-12.9,34,24,18,30.03,29.82,7,4,7,0.00
2013-11-13,41.9,29.9,17.1,1.4,-4.0,-12.9,36,23,18,29.91,29.47,7,7,7,0.00
2013-11-14,50.4,36.6,30.6,5.6,-1.9,-5.7,20,19,16,29.47,29.20,7,6,7,0.00
2013-11-15,56.7,42.8,35.1,15.9,4.1,-2.6,39,20,15,29.29,29.20,5,4,5,0.00
2013-11-16,59.5,50.3,39.7,46.9,34.8,11.3,87,57,30,29.23,28.76,3,3,3,0.00
2013-11-17,69.6,55.0,44.6,55.3,33.5,14.3,88,47,23,28.97,28.35,3,3,3,0.00
2013-11-18,44.6,40.9,27.1,14.3,5.9,-6.3,29,23,18,29.59,28.94,5,3,5,0.00
2013-11-19,43.9,31.9,19.2,15.7,3.9,-5.7,51,32,18,29.71,29.53,5,5,5,0.00
2013-11-20,45.0,37.4,30.4,20.8,5.9,-2.6,50,28,17,29.65,29.41,5,5,5,0.00
2013-11-21,37.8,37.8,37.8,19.9,19.9,19.4,48,48,48,29.53,29.41,5,5,5,0.00
2013-11-22,37.8,37.8,37.8,19.9,19.9,19.9,48,48,48,29.79,29.50,5,5,5,0.00
2013-11-23,37.8,37.7,0.0,19.9,19.8,0.0,48,48,48,29.94,29.56,5,5,5,0.00
2013-11-24,28.0,23.6,0.0,0.0,-11.0,-13.3,20,18,18,29.91,29.65,13,7,13,0.00
2013-11-25,29.8,25.7,21.7,6.9,-4.2,-13.1,38,27,20,29.68,29.35,11,9,11,0.00
2013-11-26,33.3,22.9,0.0,6.2,-1.0,-18.6,36,24,19,29.47,29.29,23,9,23,3.15
2013-11-27,28.9,18.9,10.0,-6.5,-15.0,-21.4,22,21,18,29.56,29.47,14,7,14,608.59
2013-11-28,33.4,23.7,11.7,-3.5,-11.1,-18.1,26,20,18,29.79,29.47,14,4,14,309.07
2013-11-29,38.8,23.9,7.2,0.0,-10.1,-22.0,36,21,19,29.94,29.68,13,2,13,0.00
2013-11-30,50.0,36.1,25.3,5.6,-0.6,-7.4,37,21,16,29.68,29.29,18,4,18,0.00
2013-12-1,43.3,29.1,24.4,11.2,5.8,-1.7,43,38,18,29.41,29.32,12,2,12,0.00
2013-12-2,43.0,27.8,20.3,27.4,5.0,-1.5,75,39,18,29.26,29.03,14,2,14,0.00
2013-12-3,41.2,38.8,34.5,39.6,36.4,27.8,96,91,76,29.03,28.94,7,4,7,0.00
2013-12-4,53.8,45.8,37.0,53.2,41.0,15.8,98,86,35,29.03,28.73,3,3,3,0.00
2013-12-5,36.3,25.2,17.8,15.4,-5.8,-16.5,46,26,18,29.56,28.91,18,6,18,0.00
2013-12-6,20.5,14.8,9.1,-14.4,-17.5,-22.0,24,22,20,29.82,29.53,12,6,12,0.00
2013-12-7,20.8,10.3,3.7,-13.9,-21.4,-26.6,22,22,20,29.94,29.82,8,8,8,0.00
2013-12-8,25.9,19.0,6.6,9.9,-5.6,-24.1,54,34,21,29.91,29.17,10,6,10,0.00
2013-12-9,24.6,12.9,-9.2,8.6,-14.4,-37.7,53,29,19,29.47,29.17,30,7,30,0.21
2013-12-10,25.3,7.9,-9.8,-11.1,-23.7,-38.2,22,21,19,29.56,29.23,25,8,25,0.00
2013-12-11,19.6,13.3,-7.4,-5.4,-15.7,-37.0,40,26,20,29.82,29.53,9,8,9,0.00
2013-12-12,20.3,3.0,-7.1,-14.5,-28.0,-36.7,24,21,20,29.82,29.47,4,2,4,0.00
2013-12-13,34.7,24.6,13.5,8.7,-5.4,-15.3,41,27,18,29.50,29.35,2,2,2,0.00
2013-12-14,31.6,26.6,20.1,13.4,3.9,-3.9,56,38,23,29.38,29.20,12,5,12,0.00
2013-12-15,20.7,13.4,4.6,-2.0,-17.8,-25.8,37,23,20,29.38,29.17,6,6,6,0.00
2013-12-16,24.1,11.1,-3.3,-7.6,-19.2,-32.6,35,24,19,29.44,29.26,6,3,6,0.00
2013-12-17,37.6,24.8,14.5,3.3,-4.3,-12.5,48,29,18,29.35,29.14,3,3,3,0.00
2013-12-18,39.2,25.8,9.7,0.1,-9.4,-21.5,29,21,18,29.38,29.06,11,5,11,0.00
2013-12-19,36.1,31.4,22.5,29.8,6.7,-4.8,87,39,19,29.23,29.06,6,6,6,0.00
2013-12-20,33.1,31.7,26.2,29.4,21.1,13.9,86,66,47,29.09,29.00,6,6,6,0.00
2013-12-21,33.3,29.1,25.7,30.0,20.8,14.2,89,72,47,29.12,28.88,2,2,2,0.00
2013-12-22,34.7,27.8,21.4,25.7,9.3,-5.3,80,48,20,29.38,28.88,2,2,2,0.00
2013-12-23,22.3,10.6,-4.5,6.0,-15.5,-34.5,49,30,21,29.71,29.35,2,2,2,0.00
2013-12-24,21.0,5.1,-4.9,-6.9,-25.7,-34.8,38,22,20,29.79,29.62,6,2,6,0.33
2013-12-25,25.3,21.4,14.9,6.7,-1.0,-14.5,49,37,23,29.62,29.35,0,0,0,0.00
2013-12-26,31.8,22.3,8.1,7.5,-4.1,-15.4,44,31,20,29.53,29.35,9,1,9,0.00
2013-12-27,39.9,27.1,15.1,9.3,4.0,-3.5,50,39,18,29.53,29.29,0,0,0,0.00
2013-12-28,47.5,38.3,25.9,18.7,4.9,-0.7,62,27,17,29.35,29.09,9,1,9,0.00
2013-12-29,36.1,23.4,1.6,15.3,-4.3,-28.5,51,30,20,29.47,29.00,6,6,6,0.25
2013-12-30,11.3,2.0,-8.0,-20.1,-28.1,-36.6,22,22,22,29.59,29.44,6,6,6,0.00
2013-12-31,12.4,4.9,-5.4,-19.2,-25.6,-34.5,22,22,22,29.62,29.44,4,4,4,0.00
2014-1-1,7.5,7.5,7.5,-23.4,-23.4,-23.4,22,22,22,29.59,29.47,4,4,4,0.00
2014-1-2,20.1,9.1,6.4,-14.5,-22.5,-25.2,22,21,20,29.68,29.41,11,6,11,0.00